Location: Aulagny
(45.1643°N, 4.3096°E)
Time: 13:50:00
(UTC+00:00)

SMAP - Pass Details

Date: 21 October 2019
Orbit: 682 x 683 km, 98.1° (Epoch: 20 November)

Event Time Altitude Azimuth Distance (km) Brightness Sun altitude
Rises 17:35:10 0° 182° (S) 3,030 6.5 -9.0°
Reaches altitude 10° 17:37:29 10° 189° (S) 2,120 5.8 -9.4°
Maximum altitude 17:41:54 43° 261° (W) 954 4.5 -10.2°
Drops below altitude 10° 17:46:22 10° 334° (NNW) 2,135 5.9 -10.9°
Sets 17:48:43 0° 341° (NNW) 3,055 6.6 -11.4°
